Sierra Vista, AZ

4:12 AM MST on September 21, 2017 (GMT -0700)
Sierra Vista Municipal-Libby Army Air Field

Weather History for KFHU - March, 2013

Change the Weather History Date:

Saturday, March 2, 2013

  Actual Average Record
Temperature  
Mean Temperature 58 °F -  
Max Temperature 75 °F 61 °F 84 °F (2009)
Min Temperature 41 °F 40 °F 30 °F (2007)
Degree Days  
Heating Degree Days 7    
Growing Degree Days 8 (Base 50)    
Moisture  
Dew Point 14 °F    
Average Humidity 21    
Maximum Humidity 41    
Minimum Humidity 6    
Precipitation  
Precipitation 0.00 in - - ()
Sea Level Pressure  
Sea Level Pressure 30.21 in    
Wind  
Wind Speed 5 mph (South)    
Max Wind Speed 14 mph    
Max Gust Speed -    
Visibility 10 miles    
Events      
Averages and records for this station are not official NWS values.
T = Trace of Precipitation, MM = Missing Value Source: NWS Daily Summary

Daily Weather History Graph

Daily Weather History Graph

Search for Another Location

Airport or City:

Trip Planner

Search our weather history database for the weather conditions in past years. The results will help you decide how hot, cold, wet, or windy it might be!

Date:

Astronomy

Mar. 02, 2013 Rise Set
Actual Time 6:46 AM MST 6:20 PM MST
Civil Twilight 6:22 AM MST 6:44 PM MST
Nautical Twilight 5:54 AM MST 7:13 PM MST
Astronomical Twilight 5:26 AM MST 7:41 PM MST
Moon 11:39 PM MST (3/2) 9:39 AM MST (3/2)
Length of Visible Light 12h 22m
Length of Day
11h 33m
Waning Gibbous, 73% of the Moon is Illuminated
Mar 2
Waning Gibbous
Mar 4
Last Quarter
Mar 11
New
Mar 19
First Quarter
Mar 27
Full

Hourly Weather History & Observations

Time (MST) Temp. Windchill Dew Point Humidity Pressure Visibility Wind Dir Wind Speed Gust Speed Precip Events Conditions
12:56 AM 46.9 °F - 14.0 °F 27% 30.27 in 10.0 mi Calm Calm - N/A   Clear
1:56 AM 45.0 °F 43.5 °F 16.0 °F 31% 30.27 in 10.0 mi SSW 3.5 mph - N/A   Clear
2:56 AM 44.1 °F 41.5 °F 18.0 °F 35% 30.26 in 10.0 mi SW 4.6 mph - N/A   Clear
3:56 AM 43.0 °F 38.2 °F 19.9 °F 40% 30.26 in 10.0 mi SSW 8.1 mph - N/A   Clear
4:56 AM 43.0 °F 39.5 °F 19.9 °F 40% 30.26 in 10.0 mi SSW 5.8 mph - N/A   Clear
5:56 AM 42.1 °F - 19.9 °F 41% 30.29 in 10.0 mi Calm Calm - N/A   Clear
6:56 AM 41.0 °F 39.0 °F 19.0 °F 41% 30.31 in 10.0 mi South 3.5 mph - N/A   Clear
7:56 AM 52.0 °F - 19.9 °F 28% 30.30 in 10.0 mi East 3.5 mph - N/A   Clear
8:56 AM 59.0 °F - 17.1 °F 20% 30.30 in 10.0 mi ESE 6.9 mph - N/A   Clear
9:56 AM 62.1 °F - 17.1 °F 18% 30.30 in 10.0 mi East 10.4 mph - N/A   Clear
10:56 AM 66.0 °F - 15.1 °F 14% 30.27 in 10.0 mi SE 13.8 mph - N/A   Clear
11:56 AM 69.1 °F - 14.0 °F 12% 30.25 in 10.0 mi ESE 10.4 mph - N/A   Clear
12:56 PM 71.1 °F - 7.0 °F 8% 30.21 in 10.0 mi SE 6.9 mph - N/A   Clear
1:56 PM 72.0 °F - 8.1 °F 8% 30.17 in 10.0 mi ESE 3.5 mph - N/A   Clear
2:56 PM 75.0 °F - 7.0 °F 7% 30.15 in 10.0 mi East 4.6 mph - N/A   Clear
3:56 PM 75.9 °F - 3.9 °F 6% 30.14 in 10.0 mi WSW 4.6 mph - N/A   Clear
4:56 PM 75.0 °F - 5.0 °F 7% 30.13 in 10.0 mi ESE 3.5 mph - N/A   Clear
5:56 PM 71.1 °F - 8.1 °F 9% 30.13 in 10.0 mi SSE 5.8 mph - N/A   Clear
6:56 PM 63.0 °F - 12.0 °F 14% 30.17 in 10.0 mi WSW 8.1 mph - N/A   Clear
7:56 PM 60.1 °F - 15.1 °F 17% 30.15 in 10.0 mi SW 11.5 mph - N/A   Clear
8:56 PM 57.9 °F - 16.0 °F 19% 30.14 in 10.0 mi WSW 11.5 mph - N/A   Clear
9:56 PM 57.0 °F - 16.0 °F 20% 30.14 in 10.0 mi WSW 11.5 mph - N/A   Clear
10:56 PM 57.0 °F - 15.1 °F 19% 30.13 in 10.0 mi WSW 12.7 mph - N/A   Clear
11:56 PM 55.0 °F - 15.1 °F 21% 30.11 in 10.0 mi SW 9.2 mph - N/A   Clear